Time,TemperatureF,DewpointF,PressureIn,WindDirection,WindDirectionDegrees,WindSpeedMPH,WindSpeedGustMPH,Humidity,HourlyPrecipIn,Conditions,Clouds,dailyrainin,SoftwareType,DateUTC
2013-08-21 00:12:00,64.5,56.0,29.96,West,273,1.0,8.0,75,0.00,,,0.00,weatherlink.com 1.10,2013-08-20 23:12:00,
2013-08-21 00:27:00,64.5,57.0,29.96,SW,231,2.0,9.0,76,0.00,,,0.00,weatherlink.com 1.10,2013-08-20 23:27:00,
2013-08-21 00:42:00,64.1,56.0,29.96,WSW,255,3.0,9.0,76,0.00,,,0.00,weatherlink.com 1.10,2013-08-20 23:42:00,
2013-08-21 00:57:00,63.9,57.0,29.95,West,264,1.0,4.0,77,0.00,,,0.00,weatherlink.com 1.10,2013-08-20 23:57:00,
2013-08-21 01:12:00,63.9,57.0,29.94,South,190,6.0,12.0,78,0.00,,,0.00,weatherlink.com 1.10,2013-08-21 00:12:00,
2013-08-21 01:27:00,63.6,57.0,29.93,SW,236,7.0,16.0,80,0.00,,,0.00,weatherlink.com 1.10,2013-08-21 00:27:00,
2013-08-21 01:42:00,63.7,58.0,29.93,SW,214,16.0,18.0,81,0.00,,,0.00,weatherlink.com 1.10,2013-08-21 00:42:00,
2013-08-21 01:57:00,64.0,58.0,29.94,WSW,252,6.0,21.0,81,0.00,,,0.00,weatherlink.com 1.10,2013-08-21 00:57:00,
2013-08-21 02:12:00,64.1,58.0,29.94,West,267,8.0,16.0,81,0.00,,,0.00,weatherlink.com 1.10,2013-08-21 01:12:00,
2013-08-21 02:27:00,64.3,58.0,29.94,SW,232,2.0,25.0,81,0.00,,,0.00,weatherlink.com 1.10,2013-08-21 01:27:00,
2013-08-21 02:42:00,64.3,59.0,29.94,WSW,246,3.0,17.0,82,0.00,,,0.00,weatherlink.com 1.10,2013-08-21 01:42:00,
2013-08-21 02:57:00,64.3,59.0,29.94,North,360,11.0,16.0,82,0.00,,,0.00,weatherlink.com 1.10,2013-08-21 01:57:00,
2013-08-21 03:12:00,64.0,59.0,29.93,West,263,7.0,13.0,83,0.00,,,0.00,weatherlink.com 1.10,2013-08-21 02:12:00,
2013-08-21 03:27:00,63.6,59.0,29.94,West,264,4.0,11.0,85,0.00,,,0.00,weatherlink.com 1.10,2013-08-21 02:27:00,
2013-08-21 03:42:00,63.2,59.0,29.93,WSW,248,3.0,10.0,86,0.00,,,0.00,weatherlink.com 1.10,2013-08-21 02:42:00,
2013-08-21 03:57:00,63.1,59.0,29.93,SW,215,4.0,12.0,87,0.00,,,0.00,weatherlink.com 1.10,2013-08-21 02:57:00,
2013-08-21 04:12:00,62.8,59.0,29.93,SSW,211,3.0,10.0,88,0.00,,,0.00,weatherlink.com 1.10,2013-08-21 03:12:00,
2013-08-21 04:27:00,63.1,59.0,29.93,NW,309,6.0,14.0,87,0.00,,,0.00,weatherlink.com 1.10,2013-08-21 03:27:00,
2013-08-21 04:42:00,63.3,59.0,29.93,South,173,0.0,8.0,87,0.00,,,0.00,weatherlink.com 1.10,2013-08-21 03:42:00,
2013-08-21 04:57:00,63.4,59.0,29.92,SW,222,4.0,9.0,86,0.00,,,0.00,weatherlink.com 1.10,2013-08-21 03:57:00,
2013-08-21 05:12:00,63.5,59.0,29.92,SW,230,6.0,12.0,86,0.00,,,0.00,weatherlink.com 1.10,2013-08-21 04:12:00,
2013-08-21 05:27:00,63.6,59.0,29.91,WSW,243,6.0,12.0,85,0.00,,,0.00,weatherlink.com 1.10,2013-08-21 04:27:00,
2013-08-21 05:42:00,63.8,59.0,29.91,West,259,5.0,9.0,85,0.00,,,0.00,weatherlink.com 1.10,2013-08-21 04:42:00,
2013-08-21 05:57:00,63.9,59.0,29.91,WSW,249,2.0,14.0,85,0.00,,,0.00,weatherlink.com 1.10,2013-08-21 04:57:00,
2013-08-21 06:12:00,63.9,59.0,29.91,West,259,4.0,12.0,85,0.00,,,0.00,weatherlink.com 1.10,2013-08-21 05:12:00,
2013-08-21 06:28:00,63.8,59.0,29.90,SE,129,6.0,11.0,85,0.00,,,0.00,weatherlink.com 1.10,2013-08-21 05:28:00,
2013-08-21 06:43:00,63.9,59.0,29.90,West,274,2.0,12.0,84,0.00,,,0.00,weatherlink.com 1.10,2013-08-21 05:43:00,
2013-08-21 06:58:00,63.9,59.0,29.90,WSW,238,5.0,14.0,83,0.00,,,0.00,weatherlink.com 1.10,2013-08-21 05:58:00,
2013-08-21 07:13:00,63.9,59.0,29.90,SW,224,4.0,12.0,83,0.00,,,0.00,weatherlink.com 1.10,2013-08-21 06:13:00,
2013-08-21 07:28:00,64.0,59.0,29.90,SW,231,3.0,13.0,83,0.00,,,0.00,weatherlink.com 1.10,2013-08-21 06:28:00,
2013-08-21 07:43:00,64.1,59.0,29.90,WNW,294,3.0,12.0,83,0.00,,,0.00,weatherlink.com 1.10,2013-08-21 06:43:00,
2013-08-21 07:58:00,64.1,59.0,29.91,SW,229,3.0,12.0,82,0.00,,,0.00,weatherlink.com 1.10,2013-08-21 06:58:00,
2013-08-21 08:13:00,64.2,59.0,29.91,WSW,243,5.0,13.0,82,0.00,,,0.00,weatherlink.com 1.10,2013-08-21 07:13:00,
2013-08-21 08:28:00,64.6,59.0,29.91,West,262,3.0,12.0,82,0.00,,,0.00,weatherlink.com 1.10,2013-08-21 07:28:00,
2013-08-21 08:43:00,64.7,59.0,29.91,WSW,249,12.0,12.0,81,0.00,,,0.00,weatherlink.com 1.10,2013-08-21 07:43:00,
2013-08-21 08:58:00,64.8,59.0,29.91,WSW,245,4.0,10.0,81,0.00,,,0.00,weatherlink.com 1.10,2013-08-21 07:58:00,
2013-08-21 09:13:00,65.0,59.0,29.91,WSW,252,3.0,11.0,81,0.00,,,0.00,weatherlink.com 1.10,2013-08-21 08:13:00,
2013-08-21 09:28:00,65.2,59.0,29.91,SW,233,1.0,17.0,79,0.00,,,0.00,weatherlink.com 1.10,2013-08-21 08:28:00,
2013-08-21 09:43:00,65.3,59.0,29.91,SW,235,1.0,13.0,79,0.00,,,0.00,weatherlink.com 1.10,2013-08-21 08:43:00,
2013-08-21 09:58:00,65.5,58.0,29.91,West,275,6.0,9.0,78,0.00,,,0.00,weatherlink.com 1.10,2013-08-21 08:58:00,
2013-08-21 10:13:00,65.8,58.0,29.92,West,260,6.0,14.0,76,0.00,,,0.00,weatherlink.com 1.10,2013-08-21 09:13:00,
2013-08-21 10:28:00,66.0,58.0,29.91,WNW,295,5.0,12.0,75,0.00,,,0.00,weatherlink.com 1.10,2013-08-21 09:28:00,
2013-08-21 10:43:00,66.2,58.0,29.91,SW,235,10.0,14.0,74,0.00,,,0.00,weatherlink.com 1.10,2013-08-21 09:43:00,
2013-08-21 10:58:00,66.7,58.0,29.91,WNW,290,7.0,15.0,74,0.00,,,0.00,weatherlink.com 1.10,2013-08-21 09:58:00,
2013-08-21 11:13:00,66.3,58.0,29.91,West,259,2.0,11.0,75,0.00,,,0.00,weatherlink.com 1.10,2013-08-21 10:13:00,
2013-08-21 11:28:00,66.1,58.0,29.91,WSW,245,3.0,11.0,75,0.00,,,0.00,weatherlink.com 1.10,2013-08-21 10:28:00,
2013-08-21 11:43:00,66.2,58.0,29.91,West,281,10.0,12.0,74,0.00,,,0.00,weatherlink.com 1.10,2013-08-21 10:43:00,
2013-08-21 11:58:00,65.8,57.0,29.91,SW,231,3.0,14.0,74,0.00,,,0.00,weatherlink.com 1.10,2013-08-21 10:58:00,
2013-08-21 12:13:00,66.2,57.0,29.91,NW,315,3.0,13.0,73,0.00,,,0.00,weatherlink.com 1.10,2013-08-21 11:13:00,
2013-08-21 12:28:00,67.1,57.0,29.92,WNW,284,4.0,10.0,71,0.00,,,0.00,weatherlink.com 1.10,2013-08-21 11:28:00,
2013-08-21 12:43:00,67.5,58.0,29.92,WSW,249,9.0,11.0,71,0.00,,,0.00,weatherlink.com 1.10,2013-08-21 11:43:00,
2013-08-21 12:58:00,67.6,57.0,29.92,West,264,8.0,15.0,70,0.00,,,0.00,weatherlink.com 1.10,2013-08-21 11:58:00,
2013-08-21 13:13:00,68.0,57.0,29.92,SW,228,6.0,13.0,69,0.00,,,0.00,weatherlink.com 1.10,2013-08-21 12:13:00,
2013-08-21 13:28:00,68.4,57.0,29.92,West,262,4.0,13.0,68,0.00,,,0.00,weatherlink.com 1.10,2013-08-21 12:28:00,
2013-08-21 13:43:00,68.8,57.0,29.92,West,266,4.0,12.0,67,0.00,,,0.00,weatherlink.com 1.10,2013-08-21 12:43:00,
2013-08-21 13:58:00,69.0,58.0,29.91,WNW,285,4.0,12.0,68,0.00,,,0.00,weatherlink.com 1.10,2013-08-21 12:58:00,
2013-08-21 14:13:00,69.2,59.0,29.92,WSW,245,2.0,11.0,69,0.00,,,0.00,weatherlink.com 1.10,2013-08-21 13:13:00,
2013-08-21 14:28:00,71.3,59.0,29.92,West,266,2.0,13.0,66,0.00,,,0.00,weatherlink.com 1.10,2013-08-21 13:28:00,
2013-08-21 14:43:00,71.1,59.0,29.92,WNW,297,5.0,13.0,66,0.00,,,0.00,weatherlink.com 1.10,2013-08-21 13:43:00,
2013-08-21 14:58:00,71.6,60.0,29.92,WSW,243,2.0,10.0,66,0.00,,,0.00,weatherlink.com 1.10,2013-08-21 13:58:00,
2013-08-21 15:13:00,70.8,59.0,29.92,West,272,6.0,11.0,67,0.00,,,0.00,weatherlink.com 1.10,2013-08-21 14:13:00,
2013-08-21 15:29:00,71.8,59.0,29.92,West,276,4.0,11.0,65,0.00,,,0.00,weatherlink.com 1.10,2013-08-21 14:29:00,
2013-08-21 15:44:00,71.6,60.0,29.91,WSW,245,5.0,10.0,66,0.00,,,0.00,weatherlink.com 1.10,2013-08-21 14:44:00,
2013-08-21 15:59:00,71.6,59.0,29.91,ENE,58,2.0,10.0,65,0.00,,,0.00,weatherlink.com 1.10,2013-08-21 14:59:00,
2013-08-21 16:14:00,72.1,59.0,29.91,West,278,3.0,14.0,63,0.00,,,0.00,weatherlink.com 1.10,2013-08-21 15:14:00,
2013-08-21 16:29:00,71.5,59.0,29.91,SW,228,6.0,10.0,64,0.00,,,0.00,weatherlink.com 1.10,2013-08-21 15:29:00,
2013-08-21 16:44:00,71.3,59.0,29.91,WNW,295,4.0,10.0,65,0.00,,,0.00,weatherlink.com 1.10,2013-08-21 15:44:00,
2013-08-21 16:59:00,71.0,59.0,29.91,WSW,253,2.0,12.0,65,0.00,,,0.00,weatherlink.com 1.10,2013-08-21 15:59:00,
2013-08-21 17:14:00,72.0,60.0,29.92,West,264,5.0,9.0,65,0.00,,,0.00,weatherlink.com 1.10,2013-08-21 16:14:00,
2013-08-21 17:29:00,71.6,59.0,29.92,West,281,3.0,11.0,65,0.00,,,0.00,weatherlink.com 1.10,2013-08-21 16:29:00,
2013-08-21 17:44:00,70.9,59.0,29.92,NNW,328,1.0,12.0,66,0.00,,,0.00,weatherlink.com 1.10,2013-08-21 16:44:00,
2013-08-21 17:59:00,69.7,59.0,29.92,West,273,3.0,11.0,68,0.00,,,0.00,weatherlink.com 1.10,2013-08-21 16:59:00,
2013-08-21 18:14:00,69.2,59.0,29.92,West,262,3.0,10.0,69,0.00,,,0.00,weatherlink.com 1.10,2013-08-21 17:14:00,
2013-08-21 18:29:00,68.3,58.0,29.92,West,266,7.0,10.0,69,0.00,,,0.00,weatherlink.com 1.10,2013-08-21 17:29:00,
2013-08-21 18:44:00,68.0,58.0,29.92,West,264,3.0,14.0,70,0.00,,,0.00,weatherlink.com 1.10,2013-08-21 17:44:00,
2013-08-21 18:59:00,68.1,58.0,29.92,West,263,3.0,9.0,70,0.00,,,0.00,weatherlink.com 1.10,2013-08-21 17:59:00,
2013-08-21 19:14:00,67.7,58.0,29.92,West,259,3.0,9.0,71,0.00,,,0.00,weatherlink.com 1.10,2013-08-21 18:14:00,
2013-08-21 19:29:00,67.4,58.0,29.92,WSW,248,3.0,7.0,72,0.00,,,0.00,weatherlink.com 1.10,2013-08-21 18:29:00,
2013-08-21 19:44:00,67.0,58.0,29.92,West,271,2.0,12.0,73,0.00,,,0.00,weatherlink.com 1.10,2013-08-21 18:44:00,
2013-08-21 19:59:00,66.6,58.0,29.92,West,273,1.0,8.0,73,0.00,,,0.00,weatherlink.com 1.10,2013-08-21 18:59:00,
2013-08-21 20:14:00,66.3,57.0,29.92,WSW,253,6.0,10.0,72,0.00,,,0.00,weatherlink.com 1.10,2013-08-21 19:14:00,
2013-08-21 20:29:00,66.1,57.0,29.93,WSW,255,3.0,7.0,73,0.00,,,0.00,weatherlink.com 1.10,2013-08-21 19:29:00,
2013-08-21 20:44:00,65.8,57.0,29.93,WSW,249,8.0,9.0,73,0.00,,,0.00,weatherlink.com 1.10,2013-08-21 19:44:00,
2013-08-21 20:59:00,65.5,57.0,29.93,West,259,4.0,8.0,74,0.00,,,0.00,weatherlink.com 1.10,2013-08-21 19:59:00,
2013-08-21 21:14:00,65.4,57.0,29.94,SW,224,1.0,5.0,74,0.00,,,0.00,weatherlink.com 1.10,2013-08-21 20:14:00,
2013-08-21 21:29:00,65.2,57.0,29.94,WSW,250,3.0,9.0,74,0.00,,,0.00,weatherlink.com 1.10,2013-08-21 20:29:00,
2013-08-21 21:44:00,65.0,57.0,29.94,West,277,3.0,6.0,75,0.00,,,0.00,weatherlink.com 1.10,2013-08-21 20:44:00,
2013-08-21 21:59:00,64.8,57.0,29.94,NW,317,2.0,7.0,75,0.00,,,0.00,weatherlink.com 1.10,2013-08-21 20:59:00,
2013-08-21 22:14:00,64.6,57.0,29.94,WSW,243,3.0,7.0,76,0.00,,,0.00,weatherlink.com 1.10,2013-08-21 21:14:00,
2013-08-21 22:29:00,63.9,57.0,29.94,WNW,284,1.0,6.0,79,0.00,,,0.00,weatherlink.com 1.10,2013-08-21 21:29:00,
2013-08-21 22:44:00,62.8,58.0,29.94,West,260,2.0,8.0,83,0.00,,,0.00,weatherlink.com 1.10,2013-08-21 21:44:00,
2013-08-21 22:59:00,61.9,58.0,29.94,WSW,257,1.0,6.0,86,0.00,,,0.00,weatherlink.com 1.10,2013-08-21 21:59:00,
2013-08-21 23:14:00,61.5,58.0,29.94,West,269,0.0,7.0,87,0.00,,,0.00,weatherlink.com 1.10,2013-08-21 22:14:00,
2013-08-21 23:29:00,61.3,57.0,29.94,WSW,252,2.0,6.0,87,0.00,,,0.00,weatherlink.com 1.10,2013-08-21 22:29:00,
2013-08-21 23:44:00,61.4,57.0,29.94,West,281,6.0,7.0,86,0.00,,,0.00,weatherlink.com 1.10,2013-08-21 22:44:00,
2013-08-21 23:59:00,61.5,57.0,29.94,West,278,4.0,5.0,85,0.00,,,0.00,weatherlink.com 1.10,2013-08-21 22:59:00,